Regional Weather Roundup
Issued by NWS

Home | Current Version | Previous Version | Text Only | Print | Product List | Glossary On
Versions: 1 2 3 4 5 6 7 8 9 10 11 12 13 14 15 16 17 18 19 20 21 22 23 24 25 26 27 28 29 30 31 32 33 34 35 36 37 38 39 40 41 42 43 44 45 46 47 48 49 50
000
ASUS43 KFSD 051510
RWRSD

WEATHER ROUNDUP FOR SOUTH DAKOTA
NATIONAL WEATHER SERVICE SIOUX FALLS SD
1000 AM CDT SAT SEP 05 2015

NOTE: "FAIR" INDICATES FEW OR NO CLOUDS BELOW 12,000 FEET WITH NO
SIGNIFICANT WEATHER AND/OR OBSTRUCTIONS TO VISIBILITY.


SDZ001>005-009-010-012>017-051600-
NORTHWEST AND NORTH CENTRAL SOUTH DAKOTA

CITY           SKY/WX    TMP DP  RH WIND       PRES   REMARKS
BUFFALO          N/A     69  64  84 E10       29.76F
FAITH            N/A     70  67  90 E10       29.82S
MOBRIDGE       CLOUDY    73  73 100 SE10      29.80R
$$

SDZ012>016-024>037-041>051-057-063-072>074-051600-
SOUTHWEST AND SOUTH CENTRAL SOUTH DAKOTA

CITY           SKY/WX    TMP DP  RH WIND       PRES   REMARKS
RAPID CTY ARPT CLOUDY    71  62  73 N6        29.84R
PIERRE         LGT RAIN  70  66  87 N6        29.77F
CUSTER         CLOUDY    66  52  60 CALM      29.97S
PHILIP         CLOUDY    71  66  84 SW5       29.79S
PINE RIDGE     CLOUDY    69  61  75 E3        29.85R
WINNER         FAIR      74  66  76 SE9       29.78F
$$

SDZ004>011-016>023-039-040-051600-
NORTHEAST SOUTH DAKOTA

CITY           SKY/WX    TMP DP  RH WIND       PRES   REMARKS
ABERDEEN       CLOUDY    73  70  90 E6        29.81F
WATERTOWN      PTSUNNY   74  68  81 SE12      29.84S
BROOKINGS      PTSUNNY   75  68  78 S12       29.87R
SISSETON         N/A     74  70  87 S5        29.82F
$$

SDZ017-020-022-023-036>040-048>070-051600-
SOUTHEAST SOUTH DAKOTA

CITY           SKY/WX    TMP DP  RH WIND       PRES   REMARKS
SIOUX FALLS    CLOUDY    75  70  84 S10       29.86S
HURON          CLOUDY    75  68  78 S6        29.79R
CHAMBERLAIN    CLOUDY    71  69  92 E5        29.79F
MITCHELL       CLOUDY    78  69  73 S9        29.80S
YANKTON        PTSUNNY   81  68  65 S14G22    29.81S
$$

ABBREVIATIONS USED IN REMARKS
   TC - TEMPERATURE IN CELSIUS
  WCI - WIND CHILL INDEX
   HX - HEAT INDEX
  VSB - VISIBILITY




USA.gov is the U.S. government's official web portal to all federal, state and local government web resources and services.